Peoria, IL

2:21 PM CST on December 06, 2016 (GMT -0600)
Greater Peoria Regional

Weather History for KPIA - February, 2014

Change the Weather History Date:

Sunday, February 9, 2014

  Actual Average Record
Temperature  
Mean Temperature 10 °F 28 °F  
Max Temperature 20 °F 36 °F 65 °F (1943)
Min Temperature 0 °F 20 °F -22 °F (1899)
Degree Days  
Heating Degree Days 55 37  
Month to date heating degree days 486 345  
Since 1 July heating degree days 4354 3866  
Cooling Degree Days 0 0  
Month to date cooling degree days 0 0  
Year to date cooling degree days 0 0  
Moisture  
Dew Point 9 °F    
Average Humidity 74    
Maximum Humidity 91    
Minimum Humidity 56    
Precipitation  
Precipitation 0.08 in 0.06 in 1.81 in (1939)
Month to date precipitation 0.91 0.49  
Year to date precipitation 3.01 2.27  
Snow  
Snow 1.30 in 0.30 in 4.80 in (1942)
Month to date snowfall 10.5 2.2  
Since 1 July snowfall 37.8 17.3  
Snow Depth 8.00 in    
Sea Level Pressure  
Sea Level Pressure 30.24 in    
Wind  
Wind Speed 7 mph (WNW)    
Max Wind Speed 13 mph    
Max Gust Speed 17 mph    
Visibility 7 miles    
Events Fog , Snow    
T = Trace of Precipitation, MM = Missing Value Source: NWS Daily Summary

Daily Weather History Graph

Daily Weather History Graph

Search for Another Location

Airport or City:

Trip Planner

Search our weather history database for the weather conditions in past years. The results will help you decide how hot, cold, wet, or windy it might be!

Date:

Astronomy

Feb. 09, 2014 Rise Set
Actual Time 7:00 AM CST 5:26 PM CST
Civil Twilight 6:31 AM CST 5:54 PM CST
Nautical Twilight 5:59 AM CST 6:27 PM CST
Astronomical Twilight 5:27 AM CST 6:59 PM CST
Moon 1:05 PM CST (2/9) 3:05 AM CST (2/9)
Length of Visible Light 11h 23m
Length of Day
10h 26m
Waxing Gibbous, 77% of the Moon is Illuminated
Feb 9
Waxing Gibbous
Feb 14
Full
Feb 22
Last Quarter
Mar 1
New
Mar 8
First Quarter

Hourly Weather History & Observations

Time (CST) Temp. Windchill Dew Point Humidity Pressure Visibility Wind Dir Wind Speed Gust Speed Precip Events Conditions
12:42 AM 19.9 °F 14.9 °F 16.0 °F 85% 30.15 in 1.8 mi West 3.5 mph - 0.00 in Snow Light Snow
12:47 AM 19.9 °F 14.9 °F 16.0 °F 85% 30.15 in 0.8 mi West 3.5 mph - 0.00 in Snow Light Snow
12:54 AM 19.9 °F 14.9 °F 16.0 °F 85% 30.18 in 0.8 mi West 3.5 mph - 0.01 in Snow Light Snow
1:05 AM 19.9 °F 14.9 °F 17.1 °F 89% 30.14 in 0.5 mi WSW 3.5 mph - 0.01 in Fog , Snow Snow
1:12 AM 19.9 °F 14.9 °F 17.1 °F 89% 30.13 in 0.5 mi WSW 3.5 mph - 0.02 in Fog , Snow Snow
1:35 AM 19.9 °F 13.4 °F 17.1 °F 89% 30.16 in 1.0 mi WNW 4.6 mph - 0.04 in Snow Light Snow
1:46 AM 19.9 °F 13.4 °F 17.1 °F 89% 30.16 in 1.2 mi WNW 4.6 mph - 0.04 in Snow Light Snow
1:54 AM 19.9 °F - 17.1 °F 89% 30.17 in 1.0 mi Calm Calm - 0.05 in Snow Light Snow
2:04 AM 19.9 °F - 17.1 °F 89% 30.13 in 0.8 mi Calm Calm - 0.00 in Snow Light Snow
2:18 AM 19.9 °F - 16.0 °F 85% 30.14 in 1.2 mi Calm Calm - 0.01 in Snow Light Snow
2:23 AM 19.9 °F - 16.0 °F 85% 30.13 in 2.0 mi Calm Calm - 0.02 in Snow Light Snow
2:29 AM 19.9 °F - 16.0 °F 85% 30.13 in 3.0 mi Calm Calm - 0.02 in Snow Light Snow
2:54 AM 19.9 °F 12.1 °F 16.0 °F 85% 30.19 in 6.0 mi WNW 5.8 mph - 0.02 in   Overcast
3:54 AM 19.9 °F 13.4 °F 15.1 °F 81% 30.20 in 7.0 mi NNW 4.6 mph - N/A   Overcast
4:54 AM 19.0 °F 12.3 °F 14.0 °F 81% 30.20 in 8.0 mi NW 4.6 mph - N/A   Overcast
5:02 AM 19.0 °F 12.3 °F 12.9 °F 77% 30.18 in 8.0 mi NW 4.6 mph - N/A   Overcast
5:54 AM 18.0 °F 6.9 °F 12.0 °F 78% 30.21 in 8.0 mi North 9.2 mph - N/A   Overcast
6:08 AM 17.1 °F 7.6 °F 10.9 °F 77% 30.18 in 9.0 mi NNW 6.9 mph - N/A   Overcast
6:54 AM 15.1 °F 6.4 °F 8.1 °F 74% 30.22 in 10.0 mi NNW 5.8 mph - N/A   Mostly Cloudy
7:04 AM 15.1 °F 9.4 °F 8.1 °F 74% 30.18 in 9.0 mi NNW 3.5 mph - N/A   Scattered Clouds
7:54 AM 14.0 °F 6.5 °F 8.1 °F 77% 30.25 in 7.0 mi NW 4.6 mph - N/A   Clear
8:54 AM 15.1 °F 4.2 °F 7.0 °F 70% 30.26 in 8.0 mi NW 8.1 mph - N/A   Clear
9:54 AM 15.1 °F 5.2 °F 7.0 °F 70% 30.27 in 9.0 mi NW 6.9 mph - N/A   Clear
10:54 AM 16.0 °F 3.6 °F 6.1 °F 65% 30.27 in 10.0 mi NW 10.4 mph - N/A   Clear
11:54 AM 17.1 °F 5.8 °F 6.1 °F 62% 30.27 in 10.0 mi WNW 9.2 mph - N/A   Clear
12:54 PM 19.0 °F 8.2 °F 6.1 °F 57% 30.25 in 10.0 mi NW 9.2 mph - N/A   Clear
1:54 PM 18.0 °F 6.9 °F 6.1 °F 60% 30.25 in 10.0 mi WNW 9.2 mph - N/A   Clear
2:54 PM 18.0 °F 8.7 °F 6.1 °F 60% 30.28 in 10.0 mi NW 6.9 mph - N/A   Mostly Cloudy
3:54 PM 18.0 °F 6.9 °F 6.1 °F 60% 30.30 in 10.0 mi WNW 9.2 mph - N/A   Clear
4:54 PM 16.0 °F 4.4 °F 5.0 °F 62% 30.32 in 10.0 mi WNW 9.2 mph - N/A   Clear
5:54 PM 14.0 °F 2.9 °F 5.0 °F 67% 30.32 in 9.0 mi NW 8.1 mph - N/A   Clear
6:54 PM 10.9 °F -0.8 °F 3.0 °F 70% 30.35 in 9.0 mi WNW 8.1 mph - N/A   Clear
7:54 PM 9.0 °F -4.2 °F 1.0 °F 70% 30.36 in 9.0 mi NW 9.2 mph - N/A   Clear
8:54 PM 6.1 °F -5.6 °F -2.0 °F 69% 30.37 in 9.0 mi WNW 6.9 mph - N/A   Clear
9:54 PM 3.9 °F -6.9 °F -4.0 °F 70% 30.39 in 10.0 mi WNW 5.8 mph - N/A   Clear
10:54 PM 1.9 °F -5.6 °F -6.0 °F 69% 30.40 in 10.0 mi WNW 3.5 mph - N/A   Clear
11:54 PM -0.0 °F -7.9 °F -8.0 °F 69% 30.42 in 10.0 mi Variable 3.5 mph - N/A   Clear